This demonstration page uses our WeatherBlox Daily Observations layout. Learn more.

38.88101, -77.10428

Hourly Observations for October 23, 2020

Temp ( °F °C ) Dew Point ( °F °C ) Humidity (%) Winds ( mph kmh ) Pressure ( in mb ) Visibility ( mi km ) Precip ( " mm )
12:52 am 00:52 Clear 66 18.9 63 17.2 90 90 SSW 5 7 30.19 1022 10 16.0934 0 0
1:52 am 01:52 Clear 64 17.8 63 17.2 96 96 S 6 9 30.18 1022 10 16.0934 0 0
2:52 am 02:52 Mostly Clear 63 17.2 63 17.2 100 100 S 5 7 30.17 1022 8 12.87472 0 0
3:44 am 03:44 Mostly Cloudy 64 17.8 62 16.7 93 93 SSE 3 6 30.16 1021 7 11.26538 0 0
3:52 am 03:52 Mostly Cloudy 64 17.8 63 17.2 96 96 S 5 7 30.16 1021 7 11.26538 0 0
4:16 am 04:16 Cloudy with Mist and Fog 64 17.8 63 17.2 96 96 S 6 9 30.16 1021 1.75 2.816345 0 0
4:49 am 04:49 Cloudy with Mist and Fog 63 17 63 17 100 100 S 6 9 30.17 1022 0.75 1.207005 0 0
4:52 am 04:52 Cloudy with Mist and Fog 63 17.2 63 17.2 100 100 S 6 9 30.16 1022 0.75 1.207005 0 0
5:52 am 05:52 Mostly Cloudy with Fog 63 17.2 62 16.7 97 97 SSW 5 7 30.17 1022 0.5 0.80467 0 0
6:52 am 06:52 Mostly Cloudy with Fog 63 17.2 62 16.7 97 97 Calm 30.18 1022 0.5 0.80467 0 0
7:07 am 07:07 Mostly Cloudy with Mist and Fog 63 17.2 62 16.7 97 97 Calm 30.19 1022 1.5 2.41401 0 0
7:11 am 07:11 Mostly Cloudy with Mist and Fog 63 17.2 62 16.7 97 97 Calm 30.19 1022 2.5 4.02335 0 0
7:17 am 07:17 Mostly Cloudy with Patchy Fog 63 17.2 62 16.7 97 97 Calm 30.19 1022 3 4.82802 0 0
7:52 am 07:52 Mostly Cloudy with Mist and Fog 63 17.2 62 16.7 97 97 Calm 30.19 1022 5 8.0467 0 0
8:52 am 08:52 Mostly Cloudy 64 17.8 63 17.2 96 96 Calm 30.21 1023 8 12.87472 0 0
9:52 am 09:52 Partly Cloudy 68 20 63 17.2 84 84 Calm 30.21 1023 10 16.0934 0 0
10:52 am 10:52 Partly Cloudy 70 21.1 64 17.8 82 82 SSW 6 9 30.2 1023 10 16.0934 0 0
11:52 am 11:52 Mostly Cloudy 73 22.8 65 18.3 76 76 S 7 11 30.19 1022 10 16.0934 0 0
12:52 pm 12:52 Mostly Cloudy 75 23.9 64 17.8 69 69 S 9 15 30.16 1021 10 16.0934 0 0
1:52 pm 13:52 Partly Cloudy 75 23.9 63 17.2 66 66 S 10 17 30.13 1020 10 16.0934 0 0
2:52 pm 14:52 Partly Cloudy 77 25 62 16.7 60 60 S 10 17 30.1 1019 10 16.0934 0 0
3:52 pm 15:52 Partly Cloudy 77 25 61 16.1 58 58 S 9 15 30.08 1019 10 16.0934 0 0
4:52 pm 16:52 Mostly Cloudy 75 23.9 61 16.1 62 62 S 9 15 30.07 1018 10 16.0934 0 0
5:52 pm 17:52 Mostly Cloudy 73 22.8 59 15 62 62 SSE 9 15 30.06 1018 10 16.0934 0 0
6:52 pm 18:52 Mostly Cloudy 70 21.1 61 16.1 73 73 SSE 10 17 30.05 1018 10 16.0934 0 0
7:52 pm 19:52 Mostly Cloudy 68 20 61 16.1 78 78 SSE 8 13 30.06 1018 10 16.0934 0 0
8:52 pm 20:52 Mostly Clear 66 18.9 60 15.6 81 81 SSE 8 13 30.05 1018 10 16.0934 0 0
9:52 pm 21:52 Clear 65 18.3 61 16.1 87 87 S 8 13 30.04 1017 10 16.0934 0 0
10:52 pm 22:52 Mostly Clear 65 18.3 62 16.7 90 90 S 10 17 30.04 1017 10 16.0934 0 0
11:52 pm 23:52 Mostly Clear 65 18.3 61 16.1 87 87 S 10 17 30.03 1017 10 16.0934 0 0

Powered by AerisWeather